• In Romania
  • List of Countries
  • For 7 days
  • Water Temperature
  • Satellite Maps
  • Weather Map
  • Weather Widgets
  • user-avatar
    Login

    Hourly Weather Zhlobin

    Today, 22 June, Friday

    Time Temperature Precipitation Wind Pressure Humidity
    00:00 +21°C° 0.1 mm 4 mps 745 mmHg 83%
    01:00 +21°C° 0.1 mm 4 mps 744 mmHg 86%
    02:00 +20°C° 0.1 mm 4 mps 744 mmHg 89%
    03:00 +20°C° 0.1 mm 4 mps 744 mmHg 89%
    04:00 +20°C° 0.1 mm 4 mps 743 mmHg 90%
    05:00 +20°C° 0.1 mm 4 mps 743 mmHg 91%
    06:00 +21°C° 0.6 mm 5 mps 743 mmHg 88%
    07:00 +23°C° 0.6 mm 5 mps 743 mmHg 85%
    08:00 +25°C° 0.6 mm 5 mps 743 mmHg 83%
    09:00 +23°C° 1.3 mm 5 mps 744 mmHg 84%
    10:00 +21°C° 1.3 mm 5 mps 744 mmHg 86%
    11:00 +20°C° 1.3 mm 5 mps 745 mmHg 87%
    12:00 +19°C° 0.2 mm 5 mps 745 mmHg 87%
    13:00 +17°C° 0.2 mm 4 mps 745 mmHg 87%
    14:00 +14°C° 0.2 mm 4 mps 746 mmHg 86%
    15:00 +15°C° 0 mm 4 mps 746 mmHg 80%
    16:00 +17°C° 0 mm 4 mps 746 mmHg 75%
    17:00 +18°C° 0 mm 3 mps 746 mmHg 69%
    18:00 +17°C° 0 mm 3 mps 747 mmHg 72%
    19:00 +16°C° 0 mm 2 mps 747 mmHg 75%
    20:00 +16°C° 0 mm 2 mps 747 mmHg 78%
    21:00 +15°C° 0 mm 2 mps 747 mmHg 79%
    22:00 +15°C° 0 mm 2 mps 747 mmHg 79%
    23:00 +14°C° 0 mm 2 mps 747 mmHg 80%

    Tomorrow, 23 June, Saturday

    Time Temperature Precipitation Wind Pressure Humidity
    00:00 +14°C° 0.1 mm 2 mps 747 mmHg 79%
    01:00 +14°C° 0.1 mm 2 mps 747 mmHg 79%
    02:00 +14°C° 0.1 mm 2 mps 747 mmHg 78%
    03:00 +13°C° 0.3 mm 3 mps 747 mmHg 82%
    04:00 +12°C° 0.3 mm 3 mps 747 mmHg 85%
    05:00 +12°C° 0.3 mm 4 mps 747 mmHg 89%
    06:00 +12°C° 0.6 mm 4 mps 747 mmHg 90%
    07:00 +12°C° 0.6 mm 4 mps 747 mmHg 91%
    08:00 +12°C° 0.6 mm 5 mps 747 mmHg 92%
    09:00 +10°C° 0.4 mm 5 mps 746 mmHg 92%
    10:00 +10°C° 0.4 mm 5 mps 746 mmHg 92%
    11:00 +10°C° 0.4 mm 5 mps 746 mmHg 92%
    12:00 +10°C° 0.7 mm 5 mps 746 mmHg 92%
    13:00 +10°C° 0.7 mm 5 mps 746 mmHg 93%
    14:00 +9°C° 0.7 mm 5 mps 746 mmHg 93%
    15:00 +9°C° 0.3 mm 5 mps 745 mmHg 92%
    16:00 +9°C° 0.3 mm 5 mps 745 mmHg 91%
    17:00 +11°C° 0.3 mm 4 mps 745 mmHg 90%
    18:00 +10°C° 0.2 mm 4 mps 744 mmHg 91%
    19:00 +10°C° 0.2 mm 4 mps 744 mmHg 92%
    20:00 +10°C° 0.2 mm 4 mps 744 mmHg 93%
    21:00 +10°C° 0.1 mm 4 mps 744 mmHg 94%
    22:00 +10°C° 0.1 mm 4 mps 744 mmHg 94%
    23:00 +10°C° 0.1 mm 4 mps 744 mmHg 95%

    Day after tomorrow, 24 June, Sunday

    Time Temperature Precipitation Wind Pressure Humidity
    00:00 +10°C° 0.7 mm 4 mps 743 mmHg 95%
    01:00 +10°C° 0.7 mm 4 mps 743 mmHg 95%
    02:00 +10°C° 0.7 mm 4 mps 743 mmHg 95%
    03:00 +10°C° 1.1 mm 4 mps 743 mmHg 95%
    04:00 +10°C° 1.1 mm 4 mps 743 mmHg 95%
    05:00 +9°C° 1.1 mm 5 mps 743 mmHg 95%
    06:00 +10°C° 0.9 mm 5 mps 743 mmHg 94%
    07:00 +10°C° 0.9 mm 5 mps 743 mmHg 93%
    08:00 +12°C° 0.9 mm 5 mps 744 mmHg 91%
    09:00 +14°C° 0.2 mm 5 mps 744 mmHg 83%
    10:00 +15°C° 0.2 mm 5 mps 744 mmHg 74%
    11:00 +17°C° 0.2 mm 5 mps 745 mmHg 66%
    12:00 +19°C° 0.4 mm 5 mps 745 mmHg 66%
    13:00 +19°C° 0.4 mm 5 mps 745 mmHg 65%
    14:00 +19°C° 0.4 mm 5 mps 746 mmHg 65%
    15:00 +19°C° 0.2 mm 5 mps 746 mmHg 65%
    16:00 +19°C° 0.2 mm 4 mps 746 mmHg 65%
    17:00 +19°C° 0.2 mm 4 mps 747 mmHg 65%
    18:00 +18°C° 0.1 mm 3 mps 747 mmHg 71%
    19:00 +17°C° 0.1 mm 3 mps 747 mmHg 77%
    20:00 +15°C° 0.1 mm 2 mps 748 mmHg 83%
    21:00 +14°C° 0 mm 2 mps 748 mmHg 86%
    22:00 +13°C° 0 mm 2 mps 748 mmHg 89%
    23:00 +12°C° 0 mm 2 mps 749 mmHg 92%

    25 June, Monday

    Time Temperature Precipitation Wind Pressure Humidity
    00:00 +12°C° 0 mm 2 mps 749 mmHg 93%
    01:00 +10°C° 0 mm 2 mps 749 mmHg 94%
    02:00 +10°C° 0 mm 2 mps 749 mmHg 95%
    03:00 +10°C° 0 mm 2 mps 750 mmHg 95%
    04:00 +10°C° 0 mm 2 mps 750 mmHg 94%
    05:00 +10°C° 0 mm 2 mps 750 mmHg 94%
    06:00 +13°C° 0 mm 2 mps 750 mmHg 87%
    07:00 +15°C° 0 mm 2 mps 751 mmHg 80%
    08:00 +17°C° 0 mm 3 mps 751 mmHg 74%
    09:00 +18°C° 0 mm 3 mps 751 mmHg 67%
    10:00 +19°C° 0 mm 3 mps 751 mmHg 61%
    11:00 +21°C° 0 mm 3 mps 751 mmHg 55%
    12:00 +21°C° 0.3 mm 4 mps 751 mmHg 56%
    13:00 +21°C° 0.3 mm 4 mps 751 mmHg 57%
    14:00 +22°C° 0.3 mm 4 mps 751 mmHg 57%
    15:00 +21°C° 0.3 mm 3 mps 751 mmHg 59%
    16:00 +21°C° 0.3 mm 3 mps 751 mmHg 61%
    17:00 +21°C° 0.3 mm 3 mps 751 mmHg 63%
    18:00 +19°C° 0.1 mm 2 mps 752 mmHg 69%
    19:00 +18°C° 0.1 mm 2 mps 752 mmHg 74%
    20:00 +16°C° 0.1 mm 1 mps 752 mmHg 80%
    21:00 +16°C° 0 mm 1 mps 752 mmHg 82%
    22:00 +15°C° 0 mm 1 mps 752 mmHg 84%
    23:00 +14°C° 0 mm 1 mps 753 mmHg 86%

    26 June, Tuesday

    Time Temperature Precipitation Wind Pressure Humidity
    00:00 +13°C° 0 mm 1 mps 753 mmHg 87%
    01:00 +13°C° 0 mm 1 mps 753 mmHg 88%
    02:00 +12°C° 0 mm 1 mps 753 mmHg 89%
    03:00 +13°C° 0 mm 1 mps 753 mmHg 88%
    04:00 +12°C° 0 mm 0 mps 753 mmHg 87%
    05:00 +12°C° 0 mm 0 mps 753 mmHg 86%
    06:00 +14°C° 0 mm 0 mps 753 mmHg 79%
    07:00 +16°C° 0 mm 0 mps 754 mmHg 72%
    08:00 +18°C° 0 mm 0 mps 754 mmHg 65%
    09:00 +22°C° 0 mm 1 mps 754 mmHg 59%
    10:00 +23°C° 0 mm 1 mps 754 mmHg 53%
    11:00 +24°C° 0 mm 1 mps 753 mmHg 47%
    12:00 +25°C° 0 mm 1 mps 753 mmHg 47%
    13:00 +25°C° 0 mm 1 mps 753 mmHg 46%
    14:00 +25°C° 0 mm 1 mps 753 mmHg 46%
    15:00 +25°C° 0 mm 1 mps 753 mmHg 47%
    16:00 +25°C° 0 mm 1 mps 753 mmHg 49%
    17:00 +25°C° 0 mm 1 mps 753 mmHg 50%
    18:00 +23°C° 0 mm 1 mps 753 mmHg 55%
    19:00 +22°C° 0 mm 1 mps 753 mmHg 60%
    20:00 +20°C° 0 mm 1 mps 753 mmHg 65%
    21:00 +19°C° 0 mm 1 mps 753 mmHg 67%
    22:00 +18°C° 0 mm 1 mps 753 mmHg 69%
    23:00 +16°C° 0 mm 2 mps 753 mmHg 71%

    27 June, Wednesday

    Time Temperature Precipitation Wind Pressure Humidity
    00:00 +16°C° 0 mm 2 mps 753 mmHg 73%
    01:00 +15°C° 0 mm 2 mps 753 mmHg 75%
    02:00 +15°C° 0 mm 2 mps 753 mmHg 77%
    03:00 +15°C° 0 mm 2 mps 753 mmHg 78%
    04:00 +15°C° 0 mm 2 mps 753 mmHg 79%
    05:00 +14°C° 0 mm 3 mps 753 mmHg 80%
    06:00 +17°C° 0 mm 3 mps 752 mmHg 75%
    07:00 +19°C° 0 mm 3 mps 752 mmHg 71%
    08:00 +21°C° 0 mm 3 mps 752 mmHg 66%
    09:00 +22°C° 0 mm 4 mps 752 mmHg 62%
    10:00 +25°C° 0 mm 5 mps 751 mmHg 58%
    11:00 +26°C° 0 mm 5 mps 751 mmHg 54%
    12:00 +26°C° 0 mm 5 mps 751 mmHg 54%
    13:00 +27°C° 0 mm 5 mps 750 mmHg 54%
    14:00 +27°C° 0 mm 5 mps 750 mmHg 54%
    15:00 +26°C° 0 mm 5 mps 749 mmHg 60%
    16:00 +26°C° 0 mm 5 mps 749 mmHg 65%
    17:00 +25°C° 0 mm 5 mps 749 mmHg 71%
    18:00 +23°C° 0 mm 4 mps 748 mmHg 76%
    19:00 +22°C° 0 mm 4 mps 748 mmHg 81%
    20:00 +21°C° 0 mm 4 mps 748 mmHg 86%
    21:00 +20°C° 0.9 mm 4 mps 747 mmHg 89%
    22:00 +20°C° 0.9 mm 4 mps 747 mmHg 92%
    23:00 +20°C° 0.9 mm 5 mps 747 mmHg 95%
    Show more